Location: Unspecified
(0.0000°N, 0.0000°E)
Time: 08:29:40
(UTC+00:00)

ATLAS 5 CENTAUR DEB - Pass Details

Date: 16 December 2025
Orbit: 7978 x 35827 km, 19.5° (Epoch: 10 February)

Event Time Altitude Azimuth Distance (km) Brightness Sun altitude
Rises 21:31:32 0° 275° (W) 14,999 ? -48.0°
Reaches altitude 10° 21:41:35 10° 271° (W) 15,072 ? -50.0°
Maximum altitude 00:54:09 58° 223° (SW) 31,733 ? -62.7°
Drops below altitude 10° 10:02:43 10° 68° (ENE) 11,800 ? 54.0°
Sets 10:10:47 0° 73° (ENE) 12,927 ? 55.5°
